Regional Weather Roundup
Issued by NWS Kansas City/Pleasant Hill, MO

Home | Current Version | Previous Version | Graphics & Text | Print | Product List | Glossary Off
Versions: 1 2 3 4 5 6 7 8 9 10 11 12 13 14 15 16 17 18 19 20 21 22 23 24 25 26 27 28 29 30 31 32 33 34 35 36 37 38 39 40 41 42 43 44 45 46 47 48 49 50

000
ASUS43 KEAX 190711
RWREAX

WEATHER ROUNDUP FOR EASTERN KANSAS AND NORTHWEST MISSOURI
NATIONAL WEATHER SERVICE KANSAS CITY/PLEASANT HILL MO
100 AM CST FRI DEC 19 2014

KSZ040-057-103>105-MOZ028-029-037-043-190800-
...KANSAS CITY METROPOLITAN AREA...

CITY           SKY/WX    TMP DP  RH WIND       PRES   REMARKS
K.C. INTL      CLOUDY    30  29  96 CALM      30.25F FOG
K.C. DOWNTOWN  CLOUDY    32  31  96 SE3       30.26S FOG
LEES SUMMIT    CLOUDY    32  30  92 CALM      30.25F FOG
OLATHE - IXD   CLOUDY    31  29  92 CALM      30.26S
OLATHE - OJC   CLOUDY    31  29  92 CALM      30.24S
LAWRENCE       CLOUDY    31  29  92 SE3       30.27F

$$

MOZ001>008-011>017-020>025-030>033-038>040-044>046-053-054-190800-
...NORTHERN AND CENTRAL MISSOURI...

CITY           SKY/WX    TMP DP  RH WIND       PRES   REMARKS
ST. JOSEPH     CLOUDY    31  28  89 CALM      30.27F
MOSBY          CLOUDY    32  32 100 CALM      30.26F FOG
WARRENSBURG    CLOUDY    32  32 100 NE3       30.26S FOG
WHITEMAN AFB   FOG       33  32  97 E3        30.25F VSB 1/2
CLINTON        CLOUDY    34  34 100 NE3       30.26F FOG
SEDALIA        CLOUDY    33  32  96 E5        30.26F FOG     WCI  29
WARSAW         NOT AVBL
MARSHALL       CLOUDY    34  32  93 E6        30.27F FOG     WCI  29
CHILLICOTHE      N/A     31  27  85 CALM      30.29F
MOBERLY        CLOUDY    32  27  80 E3        30.28F
KIRKSVILLE     CLOUDY    29  27  92 SE3       30.28F

$$

MOZ041-047>049-056>058-063>065-088>090-097-190800-
...EASTERN AND SOUTHERN MISSOURI...

CITY           SKY/WX    TMP DP  RH WIND       PRES   REMARKS
ST. LOUIS INTL CLOUDY    34  26  72 NE3       30.29F
SPIRIT OF STL  CLOUDY    33  29  85 CALM      30.28F
COLUMBIA       CLOUDY    32  30  92 E3        30.26F FOG
JEFFERSON CITY CLOUDY    34  31  88 E5        30.28S WCI  30
MEXICO         CLOUDY   N/A N/A N/A NE3       30.28F HAZE
ROLLA          FOG       32  32 100 E5        30.22F VSB 1/4 WCI  27
LEBANON        FOG       34  34 100 CALM      30.22F VSB 1/2
OSAGE BEACH    CLOUDY    36  32  87 NE3       30.24F VSB 3/4
SPRINGFIELD    CLOUDY    37  36  96 SE5       30.20F FOG     WCI  33
BRANSON        FOG       37  36  93 CALM      30.21F VSB 1/4
NEVADA         CLOUDY    34  34 100 N3        30.25F FOG
JOPLIN         CLOUDY    36  35  96 N3        30.23F FOG
WEST PLAINS    CLOUDY    36  34  92 E3        30.22F FOG

$$

IAZ060-094-KSZ022-034>040-054-083-096-NEZ052-066-093-190800-
...KANSAS...SOUTHEAST NEBRASKA AND IOWA...

CITY           SKY/WX    TMP DP  RH WIND       PRES   REMARKS
TOPEKA         CLOUDY    33  29  85 CALM      30.27F
MANHATTAN      CLOUDY    31  28  89 CALM      30.26F
EMPORIA        CLOUDY    30  28  92 CALM      30.25S
CHANUTE        CLOUDY    34  33  96 NW5       30.24F FOG     WCI  30
WICHITA        CLOUDY    31  28  89 CALM      30.24F
OMAHA          CLOUDY    31  27  85 S7        30.26F WCI  24
LINCOLN        CLOUDY    31  29  92 S5        30.24F WCI  26
FALLS CITY     CLOUDY    30  27  88 CALM      30.25F FOG
LAMONI         CLOUDY    28  26  92 SE3       30.26S
DES MOINES     CLOUDY    28  23  81 S3        30.28S

$$




USA.gov is the U.S. government's official web portal to all federal, state and local government web resources and services.